Location: Brompton
(51.4000°N, 0.5333°E)
Time: 09:47:34
(UTC+00:00)

Cosmos 1898 Rocket - Pass Details

Date: 11 May 2021
Orbit: 753 x 784 km, 74.0° (Epoch: 12 June)

Event Time Altitude Azimuth Distance (km) Brightness Sun altitude
Exits shadow 22:47:30 26° 206° (SSW) 1,506 4.6 -19.0°
Maximum altitude 22:50:36 86° 293° (WNW) 790 3.5 -19.1°
Drops below altitude 10° 22:55:59 10° 24° (NNE) 2,352 6.7 -19.3°
Sets 22:58:23 0° 25° (NNE) 3,286 7.6 -19.4°
